[[{"header":{"parameterUnit":"m.s-1","parameterCategory":1,"la1":30.2991,"la2":30.254,"lo1":-89.0895,"lo2":-89.0444,"dy":0.0017,"dx":0.0017,"nx":28,"ny":28,"refTime":"2024-07-17T21:00:00:Z","depth":0,"parameterNumber":2,"parameterNumberName":"U-component_of_WINDS"},"data":[0,0,0,0,0,0,0,0,0,0,0,0,0,0,0,0,0,0,0,0,0,0,0,0,0,0,0,0,0,0,0,0,0,0,0,0,0,0,0,0,0,0,0,0,0,0,0,0,0,0,0,0,0,0,0,0,0,0,0.9393,0.9394,0,0.9467,0.9468,0.9468,0.9525,0.9525,0.9526,0.9526,0.9601,0.9603,0.9604,0,0,0,0,0,0,0,0,0,0,0,0,0,0.9301,0.9302,0.9393,0.9394,0.9395,0.9467,0.9468,0.9469,0.9524,0.9525,0.9526,0.9526,0.9601,0.9603,0.9604,0,0,0,0,0,0,0,0,0,0,0,0,0,0.9354,0.9302,0.9393,0.9431,0.9436,0.9466,0.9468,0.9469,0.9524,0.9525,0.9526,0.9527,0.96,0.9602,0.9605,0.9603,0,0,0.9612,0.9613,0,0,0,0,0,0,0,0,0.9351,0.9357,0.9425,0.9429,0.9434,0.9487,0.9463,0.9514,0.9524,0.9491,0.9526,0.9527,0.9563,0.9568,0.958,0.9607,0.961,0.9612,0.9613,0.9614,0.9615,0,0,0,0,0,0,0,0.9347,0.9355,0.9422,0.9426,0.9431,0.9445,0.9453,0.9473,0.9521,0.9494,0.9498,0.9506,0.9565,0.9578,0.9582,0.9611,0.9612,0.9614,0.9615,0.9616,0.9639,0.9639,0,0,0,0,0,0,0.9338,0.9351,0.942,0.9425,0.9393,0.9446,0.9455,0.9469,0.9521,0.953,0.9505,0.9508,0.9574,0.958,0.9585,0.9586,0.9614,0.9616,0.9618,0.964,0.9639,0.9638,0,0,0,0,0,0,0.9335,0.9343,0.9417,0.9389,0.9399,0.9447,0.9462,0.947,0.9483,0.953,0.9539,0.9509,0.9574,0.9582,0.9598,0.959,0.9617,0.9619,0.9641,0.964,0.9639,0.9589,0,0,0,0,0,0,0.9332,0.9342,0.9342,0.9389,0.9401,0.9429,0.9461,0.9471,0.9487,0.9492,0.9536,0.9544,0.9576,0.9594,0.96,0.9593,0.9621,0.9642,0.9641,0.9639,0.9591,0.9586,0.9582,0,0,0,0,0,0.9329,0.9325,0.9342,0.935,0.9402,0.9428,0.9435,0.9471,0.9486,0.9486,0.9516,0.9543,0.959,0.9596,0.9603,0.9596,0.9643,0.9641,0.9639,0.9594,0.9587,0.9582,0,0,0,0,0,0,0.9276,0.9332,0.9351,0.9362,0.939,0.9437,0.9439,0.9463,0.9487,0.9491,0.9535,0.9545,0.9556,0.9578,0.9583,0.9597,0.962,0.9619,0.9582,0.9577,0.9572,0.9566,0.9623,0,0,0,0,0,0.9266,0.9283,0.933,0.9336,0.9349,0.9391,0.9404,0.9429,0.946,0.9472,0.9504,0.9532,0.9553,0.9566,0.9589,0.9595,0.9605,0.9594,0.9589,0.9585,0.9584,0.9589,0.9584,0.9633,0.9633,0.9633,0,0,0.9245,0.9277,0.9285,0.9326,0.935,0.9366,0.9401,0.9416,0.9429,0.9475,0.9491,0.9515,0.955,0.9561,0.9568,0.958,0.9573,0.9583,0.9579,0.9581,0.9586,0.9582,0.9577,0.9632,0.9632,0.9632,0,0,0.9214,0.9241,0.9248,0.9271,0.9308,0.9337,0.9338,0.9382,0.94,0.9417,0.9452,0.9467,0.9503,0.9526,0.9543,0.9521,0.9546,0.9527,0.9501,0.9505,0.9501,0.9497,0.9489,0.9485,0.9526,0.9526,0.9525,0,0.9183,0.9209,0.9248,0.9262,0.9278,0.9321,0.9328,0.9349,0.9391,0.9401,0.9415,0.946,0.9487,0.9503,0.9498,0.951,0.9513,0.9521,0.9498,0.9495,0.9493,0.9485,0.9482,0.9523,0.9523,0.9523,0.9524,0,0.9168,0.9186,0.9187,0.9226,0.9243,0.9254,0.9294,0.9306,0.9331,0.9357,0.9374,0.9408,0.9437,0.9443,0.9467,0.9463,0.947,0.949,0.9513,0.9485,0.9478,0.9476,0.9519,0.952,0.9521,0.9522,0,0,0.9106,0.9167,0.9167,0.9185,0.9229,0.9243,0.9255,0.9284,0.9293,0.9321,0.9332,0.9361,0.938,0.9398,0.9425,0.9428,0.9408,0.9449,0.945,0.9439,0.9405,0.9389,0.9385,0.9425,0.9425,0.9424,0.9402,0,0.9082,0.9106,0.9142,0.9154,0.917,0.921,0.9221,0.9249,0.9274,0.9291,0.9319,0.9339,0.9363,0.9374,0.938,0.9409,0.9402,0.9412,0.9435,0.9436,0.9424,0.9382,0.9365,0.9342,0.94,0.9399,0.9399,0,0.9057,0.9082,0.9096,0.9138,0.9146,0.9155,0.9184,0.92,0.9232,0.925,0.9271,0.93,0.9314,0.9335,0.9356,0.9362,0.9373,0.9389,0.9389,0.9393,0.9415,0.9383,0.9336,0.9332,0.9396,0.9396,0.9396,0,0.9009,0.9047,0.906,0.9074,0.9124,0.9129,0.9149,0.9182,0.9197,0.9223,0.9233,0.9259,0.9274,0.9293,0.9329,0.9341,0.9345,0.9369,0.936,0.9359,0.9358,0.9358,0.9312,0.9367,0.9367,0.9367,0.9367,0,0.8978,0.8985,0.9039,0.9047,0.9055,0.9096,0.9103,0.9128,0.9157,0.917,0.9206,0.9218,0.9264,0.9281,0.9309,0.9321,0.9327,0.9342,0.9349,0.9338,0.9336,0.9346,0.9348,0.9366,0.9367,0.9367,0.9367,0,0.8926,0.8963,0.8979,0.9025,0.9036,0.904,0.9079,0.9088,0.9116,0.9132,0.9138,0.9181,0.9203,0.924,0.9272,0.9291,0.9297,0.931,0.9286,0.9291,0.9279,0.9279,0.9237,0.9233,0.9291,0.9291,0.929,0,0.8903,0.8909,0.8955,0.8967,0.8986,0.9004,0.902,0.906,0.9074,0.9111,0.9115,0.914,0.9162,0.9194,0.9228,0.9253,0.9266,0.925,0.927,0.9259,0.9265,0.9264,0.9264,0.9245,0.9244,0.9243,0.9243,0,0.8859,0.8877,0.8897,0.8924,0.8941,0.8965,0.899,0.8997,0.9043,0.9057,0.9079,0.9096,0.9129,0.9153,0.9182,0.9204,0.923,0.9236,0.9235,0.9223,0.9209,0.9216,0.9273,0.9237,0.9237,0.9238,0.9238,0.9238,0.8821,0.8827,0.8861,0.8882,0.8906,0.8928,0.8938,0.8967,0.8987,0.9016,0.9039,0.906,0.9092,0.9134,0.9154,0.917,0.9183,0.9182,0.9181,0.918,0.9175,0.9207,0.9176,0.9176,0.9177,0.9177,0.9177,0,0.8777,0.8801,0.882,0.8854,0.8871,0.8895,0.8924,0.8936,0.8954,0.8981,0.9002,0.9027,0.905,0.9086,0.9112,0.9118,0.9131,0.9123,0.9123,0.9127,0.9163,0.9161,0.9112,0.9112,0.9112,0.9112,0.9112,0.9112,0.8757,0.8769,0.8791,0.8815,0.8839,0.886,0.8874,0.8894,0.8916,0.8943,0.8962,0.8986,0.9016,0.9045,0.9067,0.9077,0.9084,0.9072,0.9086,0.9119,0.9125,0.913,0.9128,0.9074,0.9074,0.9048,0.9048,0.9048]},{"header":{"parameterUnit":"m.s-1","parameterCategory":1,"la1":30.2991,"la2":30.254,"lo1":-89.0895,"lo2":-89.0444,"dy":0.0017,"dx":0.0017,"nx":28,"ny":28,"refTime":"2024-07-17T21:00:00:Z","depth":0,"parameterNumber":3,"parameterNumberName":"V-component_of_WINDS"},"data":[0,0,0,0,0,0,0,0,0,0,0,0,0,0,0,0,0,0,0,0,0,0,0,0,0,0,0,0,0,0,0,0,0,0,0,0,0,0,0,0,0,0,0,0,0,0,0,0,0,0,0,0,0,0,0,0,0,0,2.5103,2.5103,0,2.509,2.509,2.509,2.51,2.5101,2.5101,2.5102,2.5084,2.5083,2.5082,0,0,0,0,0,0,0,0,0,0,0,0,0,2.5134,2.5134,2.5103,2.5103,2.5103,2.509,2.509,2.509,2.51,2.5101,2.5101,2.5102,2.5085,2.5083,2.5082,0,0,0,0,0,0,0,0,0,0,0,0,0,2.5121,2.5134,2.5103,2.5107,2.5107,2.509,2.509,2.509,2.51,2.5101,2.5102,2.5102,2.5085,2.5084,2.5082,2.506,0,0,2.5078,2.5078,0,0,0,0,0,0,0,0,2.5122,2.512,2.5107,2.5107,2.5107,2.5098,2.5095,2.508,2.51,2.5103,2.5102,2.5103,2.5088,2.5086,2.5082,2.5059,2.5059,2.5078,2.5077,2.5077,2.5076,0,0,0,0,0,0,0,2.5123,2.512,2.5098,2.5106,2.5106,2.5108,2.5107,2.5092,2.5091,2.5102,2.5103,2.5102,2.5088,2.5083,2.5082,2.5058,2.5078,2.5077,2.5076,2.5076,2.5016,2.5015,0,0,0,0,0,0,2.5124,2.5121,2.5099,2.5098,2.5116,2.5107,2.5106,2.51,2.5092,2.5091,2.5101,2.5102,2.5085,2.5083,2.5081,2.5054,2.5077,2.5075,2.5075,2.5017,2.5016,2.5015,0,0,0,0,0,0,2.5124,2.5122,2.5099,2.511,2.5107,2.5106,2.5099,2.5099,2.5095,2.5091,2.509,2.5097,2.5086,2.5083,2.5065,2.5054,2.5075,2.5074,2.5017,2.5016,2.5015,2.5,0,0,0,0,0,0,2.5125,2.5122,2.5114,2.5109,2.5106,2.5084,2.5098,2.5098,2.5093,2.5094,2.5086,2.5086,2.5086,2.5067,2.5064,2.5052,2.5073,2.5018,2.5017,2.5016,2.5002,2.4999,2.4996,0,0,0,0,0,2.5126,2.511,2.5114,2.5111,2.5097,2.5084,2.5082,2.5084,2.5092,2.5084,2.5081,2.5086,2.5056,2.5066,2.5062,2.5049,2.5019,2.5017,2.5016,2.5003,2.4999,2.4996,0,0,0,0,0,0,2.5112,2.5109,2.5114,2.5095,2.509,2.5086,2.5075,2.508,2.5071,2.5072,2.5074,2.5072,2.5053,2.505,2.5061,2.5027,2.5039,2.5036,2.503,2.5027,2.5024,2.5025,2.5071,0,0,0,0,0,2.5107,2.5098,2.5095,2.5079,2.5077,2.5077,2.5071,2.5073,2.5067,2.5064,2.506,2.5053,2.5042,2.5034,2.5024,2.5002,2.4999,2.4991,2.4989,2.4986,2.4984,2.4971,2.4967,2.5009,2.5009,2.5009,0,0,2.5096,2.5093,2.5087,2.5077,2.5073,2.5062,2.5074,2.5062,2.5054,2.5062,2.5045,2.5042,2.5034,2.5014,2.5004,2.501,2.4972,2.4984,2.4982,2.4981,2.4968,2.4964,2.4961,2.5008,2.5008,2.5008,0,0,2.507,2.5068,2.5054,2.505,2.5044,2.5044,2.5041,2.5036,2.5035,2.5018,2.5024,2.5013,2.4994,2.4988,2.4982,2.4955,2.4958,2.4951,2.4936,2.4923,2.492,2.4917,2.4906,2.4902,2.4949,2.4949,2.4949,0,2.5057,2.5042,2.5046,2.5034,2.5029,2.5037,2.5022,2.5018,2.5008,2.5004,2.501,2.4986,2.4982,2.496,2.4953,2.4949,2.4944,2.4951,2.492,2.4917,2.4915,2.4904,2.49,2.4948,2.4948,2.4948,2.4948,0,2.5025,2.5015,2.5004,2.4996,2.499,2.4976,2.4977,2.497,2.4973,2.4972,2.4954,2.4949,2.4937,2.4932,2.4934,2.491,2.4914,2.4921,2.4932,2.491,2.49,2.4896,2.4946,2.4947,2.4947,2.4947,0,0,2.4989,2.4985,2.498,2.4977,2.4971,2.4962,2.4949,2.4939,2.4932,2.4925,2.4913,2.4897,2.4903,2.4896,2.4898,2.4887,2.4864,2.4895,2.4895,2.4888,2.4836,2.483,2.4826,2.4867,2.4866,2.4866,2.4836,0,2.4963,2.4941,2.4944,2.4922,2.4912,2.4919,2.4908,2.4902,2.4901,2.4891,2.4889,2.4877,2.4887,2.4883,2.4872,2.4869,2.4853,2.4871,2.4854,2.4854,2.4855,2.4821,2.4815,2.4787,2.4833,2.4832,2.4832,0,2.4929,2.4922,2.4899,2.4895,2.4891,2.488,2.4871,2.4862,2.4855,2.4855,2.4848,2.4851,2.4836,2.4849,2.4828,2.484,2.4833,2.483,2.4829,2.4827,2.484,2.4816,2.4779,2.4774,2.4826,2.4826,2.4827,0,2.4903,2.4889,2.4873,2.487,2.4865,2.4857,2.4854,2.4848,2.4842,2.4834,2.4829,2.4819,2.4812,2.4804,2.4803,2.4813,2.4781,2.4794,2.4779,2.4779,2.4771,2.4772,2.4731,2.4769,2.4769,2.4769,2.4769,0,2.4873,2.4858,2.4862,2.4852,2.4835,2.4839,2.4822,2.4821,2.4816,2.4804,2.481,2.48,2.4801,2.4789,2.4789,2.4771,2.4768,2.4767,2.4766,2.4765,2.4765,2.476,2.4762,2.4768,2.4768,2.4768,2.4769,0,2.4841,2.4843,2.4827,2.4824,2.4822,2.481,2.4807,2.4797,2.4797,2.4783,2.4779,2.4778,2.4765,2.4765,2.4749,2.4749,2.4727,2.4729,2.4729,2.4729,2.4714,2.4715,2.4668,2.4661,2.4704,2.4704,2.4703,0,2.4821,2.481,2.4806,2.48,2.4797,2.4787,2.4781,2.4784,2.4777,2.4769,2.4759,2.4747,2.4738,2.4717,2.4713,2.4701,2.4703,2.4687,2.4701,2.47,2.4701,2.4701,2.47,2.4684,2.4683,2.4683,2.4683,0,2.4784,2.4786,2.4778,2.4769,2.4762,2.4755,2.4749,2.4743,2.4745,2.4737,2.4725,2.4717,2.4702,2.469,2.4678,2.4674,2.4678,2.4679,2.4674,2.4673,2.4673,2.4671,2.472,2.4679,2.468,2.468,2.468,2.468,2.4757,2.4748,2.4744,2.4734,2.473,2.4724,2.4714,2.4713,2.4703,2.4692,2.4694,2.468,2.4673,2.4659,2.4653,2.4641,2.4646,2.4641,2.4639,2.4637,2.4635,2.4676,2.4639,2.4639,2.4639,2.4639,2.464,0,2.472,2.4718,2.4709,2.4701,2.4693,2.4699,2.4693,2.4685,2.4673,2.4667,2.4658,2.4643,2.4631,2.4627,2.4615,2.4606,2.4607,2.4602,2.4602,2.4601,2.4632,2.4636,2.4601,2.4601,2.4601,2.4601,2.4601,2.4601,2.47,2.4684,2.4685,2.4667,2.4664,2.4652,2.4647,2.4641,2.4636,2.462,2.4611,2.4609,2.4603,2.4591,2.4579,2.4578,2.4573,2.4567,2.4566,2.4595,2.4599,2.4602,2.4606,2.4566,2.4566,2.4537,2.4536,2.4536]}]]